Location: Moscow
(55.7500°N, 37.5830°E)
Time: 23:10:00
(UTC+03:00)

COSMOS 2251 DEB - Pass Details

Date: 10 July 2022
Orbit: 738 x 847 km, 74.1° (Epoch: 17 August)

Event Time Altitude Azimuth Distance (km) Brightness Sun altitude
Rises 01:30:44 0° 331° (NNW) 3,241 ? -11.1°
Reaches altitude 10° 01:33:31 10° 344° (NNW) 2,296 ? -11.0°
Maximum altitude 01:37:51 26° 41° (NE) 1,451 ? -10.8°
Drops below altitude 10° 01:42:06 10° 98° (E) 2,255 ? -10.7°
Sets 01:44:48 0° 111° (ESE) 3,171 ? -10.6°
